Stations météo

réclame
Mon MeteoGroup
Brodersby-Schönhagen, Allemagne (10042): Température de l'air & dewpoint: 12.10.2017 16:00:00 - 18.10.2017 16:00:00 (CEST)Brodersby-Schönhagen, Allemagne (10042): Température de l'air 5cm & Température de l'air -5cm: 12.10.2017 16:00:00 - 18.10.2017 16:00:00 (CEST)Brodersby-Schönhagen, Allemagne (10042): Température de l'air -20cm & Température de l'air -100cm: 12.10.2017 16:00:00 - 18.10.2017 16:00:00 (CEST)Brodersby-Schönhagen, Allemagne (10042): Vitesse du vent & gusts: 12.10.2017 16:00:00 - 18.10.2017 16:00:00 (CEST)Brodersby-Schönhagen, Allemagne (10042): Direction du vent: 12.10.2017 16:00:00 - 18.10.2017 16:00:00 (CEST)Brodersby-Schönhagen, Allemagne (10042): reduced air pressure: 12.10.2017 16:00:00 - 18.10.2017 16:00:00 (CEST)Brodersby-Schönhagen, Allemagne (10042): visibility: 12.10.2017 16:00:00 - 18.10.2017 16:00:00 (CEST)Brodersby-Schönhagen, Allemagne (10042): Ensoleillement: 12.10.2017 16:00:00 - 18.10.2017 16:00:00 (CEST)Brodersby-Schönhagen, Allemagne (10042): Quantités de précipitations: 12.10.2017 16:00:00 - 18.10.2017 16:00:00 (CEST)
Date & Time tt [°C] td [°C] tt 5cm [°C] tt -5cm [°C] tt -20cm [°C] tt -100cm [°C] ff [km/h] ff [knt] fx [km/h] fx [knt] dd ppp [hPa] vv [km] sd [min] rr [mm]
18.10.2017 16:00:00 14,5 11,4 14,6 15,2 13,2 13,4 9 5 12 7 SSE 1014,9 29 4 0,0
18.10.2017 15:00:00 15,3 10,9 16,6 15,1 12,9 13,4 8 4 15 8 WSW 1015,0 19 49 0,0
18.10.2017 14:00:00 15,2 11,6 16,3 14,6 12,6 13,4 10 5 17 9 W 1015,1 24 32 0,0
18.10.2017 13:00:00 14,0 11,7 15,0 13,8 12,3 13,4 11 6 19 11 WSW 1015,5 15 3 0,0
18.10.2017 12:00:00 13,4 11,4 14,6 13,2 12,1 13,5 14 8 20 11 SW 1015,4 11 34 0,0
18.10.2017 11:00:00 13,1 11,6 14,3 12,4 11,9 13,4 13 7 17 9 SW 1015,2 12 30 0,0
18.10.2017 10:00:00 12,0 11,3 13,0 11,3 11,9 13,4 10 5 16 9 SW 1015,3 7 3 0,0
18.10.2017 09:00:00 11,4 10,9 11,0 11,0 11,9 13,4 11 6 20 11 SW 1015,0 8 0 0,0
18.10.2017 08:00:00 11,2 10,6 10,6 10,7 11,9 13,4 14 8 21 11 WSW 1014,6 9 0 0,0
18.10.2017 07:00:00 11,2 10,4 10,2 10,8 12,0 13,4 14 7 24 13 SW 1014,5 12 0 0,0
18.10.2017 06:00:00 11,5 10,6 10,7 10,8 12,0 13,4 17 9 26 14 WSW 1014,7 14 0 0,0
18.10.2017 05:00:00 11,3 10,4 10,3 10,8 12,1 13,4 18 10 29 16 SW 1014,7 11 0 0,0
18.10.2017 04:00:00 11,6 10,6 10,7 10,8 12,2 13,4 18 10 24 13 SW 1014,9 11 0 0,0
18.10.2017 03:00:00 11,5 10,5 10,4 10,9 12,3 13,4 18 10 27 15 SW 1015,1 11 0 0,0
18.10.2017 02:00:00 11,6 10,6 10,5 11,0 12,4 13,4 16 9 25 14 SW 1015,1 12 0 0,0
18.10.2017 01:00:00 11,7 10,6 10,7 11,1 12,5 13,4 18 10 28 15 SW 1015,2 14 0 0,0
18.10.2017 00:00:00 11,9 10,4 10,5 11,2 12,6 13,4 19 10 32 17 SW 1015,3 17 0 0,0
17.10.2017 23:00:00 12,3 10,2 11,3 11,4 12,8 13,4 18 10 29 16 SW 1015,6 18 0 0,0
17.10.2017 22:00:00 12,2 10,2 11,2 11,5 12,9 13,4 21 12 30 16 SW 1015,6 18 0 0,0
17.10.2017 21:00:00 12,1 10,3 10,7 11,7 13,0 13,4 18 10 25 14 SW 1015,7 19 0 0,0
17.10.2017 20:00:00 12,4 10,2 11,2 11,9 13,2 13,4 14 8 27 15 SW 1016,0 19 0 0,0
17.10.2017 19:00:00 12,9 10,2 11,7 12,3 13,3 13,4 21 11 40 21 WSW 1015,8 21 0 0,0
17.10.2017 18:00:00 13,8 10,1 12,8 12,8 13,4 13,4 29 16 51 27 SW 1015,7 21 0 0,0
17.10.2017 17:00:00 14,1 9,9 13,3 13,2 13,5 13,4 34 18 57 31 SW 1015,9 24 15 0,0
17.10.2017 16:00:00 14,4 9,9 14,0 13,5 13,5 13,4 38 21 57 31 WSW 1016,4 16 28 0,0
17.10.2017 15:00:00 14,6 10,4 14,4 13,7 13,4 13,4 36 19 54 29 SW 1016,7 13 31 0,0
17.10.2017 14:00:00 14,6 10,3 14,5 13,7 13,3 13,4 34 18 51 28 WSW 1017,3 15 1 0,0
17.10.2017 13:00:00 14,7 10,9 14,7 13,5 13,3 13,4 32 17 51 27 WSW 1017,5 18 0 0,0
17.10.2017 12:00:00 14,4 11,0 14,3 13,2 13,3 13,4 32 18 49 26 WSW 1017,7 17 0 0,0
17.10.2017 11:00:00 14,3 11,2 13,8 12,9 13,3 13,4 27 15 41 22 SW 1017,4 19 0 0,0
17.10.2017 10:00:00 14,1 10,9 13,5 12,7 13,3 13,4 27 15 41 22 SW 1017,4 16 0 0,0
17.10.2017 09:00:00 14,4 10,8 13,4 12,7 13,4 13,4 25 14 40 22 SW 1017,2 20 0 0,0
17.10.2017 08:00:00 14,9 11,2 13,6 13,0 13,5 13,4 27 15 39 21 WSW 1016,8 20 0 0,0
17.10.2017 07:00:00 15,5 11,9 14,2 13,2 13,5 13,4 24 13 41 22 SW 1016,5 17 0 0,0
17.10.2017 06:00:00 16,4 12,7 15,1 13,4 13,5 13,4 27 15 37 20 SW 1016,5 15 0 0,0
17.10.2017 05:00:00 16,5 13,8 15,3 13,4 13,5 13,4 24 13 36 20 WSW 1016,7 10 0 0,0
17.10.2017 04:00:00 16,3 13,7 14,8 13,3 13,5 13,4 16 9 27 15 SW 1017,1 8 0 0,0
17.10.2017 03:00:00 16,4 13,9 14,9 13,3 13,6 13,4 20 11 27 15 SW 1017,2 8 0 0,0
17.10.2017 02:00:00 16,4 14,2 14,3 13,0 13,7 13,4 16 8 23 12 SW 1017,4 9 0 0,0
17.10.2017 01:00:00 14,7 14,1 13,1 13,0 13,8 13,4 11 6 16 9 SSW 1017,6 4,5 0 0,0
17.10.2017 00:00:00 14,3 13,9 13,0 13,3 13,9 13,4 9 5 17 9 SSE 1017,9 2,1 0 0,0
16.10.2017 23:00:00 14,5 14,1 13,7 13,5 14,0 13,4 11 6 21 11 SSE 1018,3 1,9 0 0,0
16.10.2017 22:00:00 14,1 13,7 13,3 13,5 14,1 13,3 15 8 21 11 SE 1018,5 1,5 0 0,0
16.10.2017 21:00:00 14,1 13,7 13,1 13,8 14,2 13,3 13 7 18 10 SSE 1018,8 1,7 0 0,0
16.10.2017 20:00:00 13,7 13,2 12,5 14,2 14,3 13,3 9 5 11 6 SSE 1019,4 1,4 0 0,0
16.10.2017 19:00:00 14,5 13,8 13,9 14,9 14,4 13,3 6 3 15 8 SSE 1019,5 2,2 0 0,0
16.10.2017 18:00:00 14,6 13,8 14,5 15,3 14,3 13,3 8 4 12 6 SE 1019,4 2,4 0 0,0
16.10.2017 17:00:00 14,8 13,8 15,0 15,8 14,2 13,3 7 4 12 7 SE 1019,6 2,5 0 0,0
16.10.2017 16:00:00 14,9 13,8 15,5 16,2 14,0 13,3 10 6 13 7 ESE 1019,5 2,4 19 0,0
16.10.2017 15:00:00 17,5 14,2 18,6 16,0 13,7 13,3 5 3 17 9 WSW 1019,9 5 37 0,0
16.10.2017 14:00:00 15,9 14,1 16,5 14,9 13,5 13,3 11 6 19 11 WSW 1020,3 4,0 0 0,0
16.10.2017 13:00:00 15,5 14,0 15,9 14,4 13,3 13,3 16 8 23 12 WSW 1020,3 4,0 0 0,0
16.10.2017 12:00:00 15,2 14,0 15,2 14,0 13,2 13,3 16 9 23 13 WSW 1020,3 3,4 0 0,0
16.10.2017 11:00:00 15,3 13,7 15,3 13,6 13,0 13,3 18 10 27 15 WSW 1019,4 4,2 0 0,0
16.10.2017 10:00:00 14,9 13,6 14,7 12,9 13,0 13,3 17 9 22 12 WSW 1019,0 3,9 0 0,0
16.10.2017 09:00:00 14,0 12,9 13,6 12,2 13,0 13,3 13 7 25 13 WSW 1018,9 3,9 0 0,0
16.10.2017 08:00:00 13,2 12,3 12,3 11,6 13,2 13,3 14 7 20 11 WSW 1018,4 4,0 0 0,0
16.10.2017 07:00:00 11,6 11,0 8,7 11,8 13,3 13,3 4 2 9 5 SSW 1018,2 2,9 0 0,0
16.10.2017 06:00:00 12,2 10,5 9,7 12,3 13,5 13,2 3 1 22 12 NW 1018,2 6 0 0,0
16.10.2017 05:00:00 14,0 11,9 12,4 12,5 13,6 13,2 15 8 21 12 SW 1017,9 9 0 0,0
16.10.2017 04:00:00 14,6 12,1 13,0 12,7 13,7 13,2 16 9 25 14 SW 1017,9 11 0 0,0
16.10.2017 03:00:00 13,9 11,7 12,3 12,9 13,9 13,2 12 7 22 12 SW 1018,4 11 0 0,0
16.10.2017 02:00:00 15,0 12,2 13,5 13,2 14,0 13,2 19 10 27 14 SW 1018,6 17 0 0,0
16.10.2017 01:00:00 15,5 12,3 14,0 13,4 14,1 13,2 20 11 28 15 SW 1018,7 21 0 0,0
16.10.2017 00:00:00 16,4 12,7 14,8 13,6 14,3 13,2 23 12 30 16 SW 1018,9 26 0 0,0
15.10.2017 23:00:00 16,9 12,9 14,8 13,8 14,4 13,2 18 10 28 15 SSW 1018,8 22 0 0,0
15.10.2017 22:00:00 16,8 13,2 14,8 14,0 14,5 13,2 19 10 27 14 SSW 1018,9 19 0 0,0
15.10.2017 21:00:00 16,5 14,0 14,6 14,3 14,7 13,2 16 8 22 12 S 1019,2 21 0 0,0
15.10.2017 20:00:00 16,5 14,4 14,4 14,6 14,9 13,2 11 6 18 10 S 1019,6 13 0 0,0
15.10.2017 19:00:00 16,2 14,9 13,7 15,2 15,0 13,2 8 4 11 6 S 1020,0 6 0 0,0
15.10.2017 18:00:00 16,0 14,4 15,1 16,2 15,0 13,2 10 5 24 13 SSE 1020,0 4,9 54 0,0
15.10.2017 17:00:00 15,8 14,2 16,2 17,0 14,9 13,2 16 8 24 13 SE 1020,5 4,5 60 0,0
15.10.2017 16:00:00 15,4 13,6 16,9 17,5 14,7 13,2 11 6 17 9 ESE 1021,3 4,4 60 0,0
15.10.2017 15:00:00 16,2 13,7 18,1 17,4 14,4 13,1 12 7 18 10 SE 1021,6 5 59 0,0
15.10.2017 14:00:00 16,0 13,5 18,0 16,7 14,1 13,1 11 6 18 10 SE 1022,4 6 53 0,0
15.10.2017 13:00:00 15,6 13,5 17,3 15,6 13,9 13,1 12 6 26 14 S 1023,3 7 11 0,0
15.10.2017 12:00:00 14,5 13,5 15,7 14,9 13,8 13,1 12 7 25 13 SSW 1023,3 6 1 0,0
15.10.2017 11:00:00 14,1 13,7 14,9 14,5 13,8 13,1 15 8 23 12 S 1023,4 2,7 0 0,0
15.10.2017 10:00:00 14,1 14,0 14,3 14,1 13,8 13,1 11 6 19 10 SSW 1023,5 1,3 0 0,0
15.10.2017 09:00:00 13,8 13,6 13,7 13,9 13,8 13,1 11 6 17 9 SSW 1023,8 2,2 0 0,0
15.10.2017 08:00:00 14,0 13,8 13,6 13,9 13,8 13,1 11 6 23 12 SW 1023,8 1,2 0 0,0
15.10.2017 07:00:00 14,3 13,9 13,9 14,0 13,8 13,1 18 10 27 15 WSW 1023,5 2,9 0 0,0
15.10.2017 06:00:00 14,6 14,0 14,3 14,1 13,8 13,1 18 10 24 13 WSW 1023,3 4,7 0 0,0
15.10.2017 05:00:00 14,8 14,1 14,4 14,2 13,9 13,1 13 7 23 12 WSW 1023,1 6 0 0,0
15.10.2017 04:00:00 15,1 14,3 14,7 14,2 13,9 13,1 17 9 26 14 WSW 1023,1 6 0 0,0
15.10.2017 03:00:00 15,1 14,3 14,7 14,3 13,9 13,1 16 9 32 17 WSW 1023,0 5 0 0,0
15.10.2017 02:00:00 15,3 14,4 14,8 14,3 13,9 13,1 21 12 34 19 WSW 1022,8 8 0 0,0
15.10.2017 01:00:00 15,4 14,4 15,0 14,4 13,9 13,1 22 12 33 18 WSW 1022,8 8 0 0,0
15.10.2017 00:00:00 15,5 14,6 14,9 14,4 13,9 13,1 22 12 40 22 WSW 1022,7 9 0 0,0
14.10.2017 23:00:00 15,4 14,7 14,7 14,4 13,9 13,1 22 12 34 18 WSW 1022,8 3,5 0 0,0
14.10.2017 22:00:00 15,3 14,7 14,7 14,4 13,9 13,1 24 13 39 21 WSW 1022,6 8 0 0,0
14.10.2017 21:00:00 15,3 14,7 14,7 14,5 13,9 13,1 23 12 34 19 WSW 1022,6 6 0 0,0
14.10.2017 20:00:00 15,6 14,6 14,8 14,5 13,9 13,1 22 12 36 19 WSW 1022,7 5 0 0,0
14.10.2017 19:00:00 15,7 14,5 15,2 14,6 13,9 13,0 23 12 36 19 WSW 1021,9 10 0 0,0
14.10.2017 18:00:00 15,8 14,5 15,4 14,7 13,9 13,0 24 13 42 23 WSW 1022,0 11 0 0,0
14.10.2017 17:00:00 15,9 14,5 15,7 14,8 13,8 13,0 25 13 43 23 WSW 1021,7 12 0 0,0
14.10.2017 16:00:00 16,0 14,8 15,8 14,9 13,8 13,0 29 16 43 23 WSW 1021,7 10 0 0,0
14.10.2017 15:00:00 15,9 15,0 15,7 14,9 13,7 13,0 26 14 41 22 WSW 1021,2 8 0 0,0
14.10.2017 14:00:00 15,8 15,2 15,5 14,8 13,6 13,0 25 14 37 20 WSW 1021,2 7 0 0,0
14.10.2017 13:00:00 15,7 15,1 15,2 14,7 13,5 13,0 23 13 39 21 WSW 1021,3 7 0 0,0
14.10.2017 12:00:00 15,5 15,0 15,1 14,5 13,4 13,0 25 13 36 19 WSW 1021,1 6 0 0,2
14.10.2017 11:00:00 15,4 14,9 14,9 14,3 13,3 13,0 23 12 40 22 WSW 1020,9 3,3 0 0,1
14.10.2017 10:00:00 15,4 14,6 14,9 14,1 13,3 13,0 28 15 39 21 WSW 1020,4 6 0 0,0
14.10.2017 09:00:00 15,3 14,4 14,9 14,0 13,3 13,0 29 15 50 27 SW 1019,9 7 0 0,0
14.10.2017 08:00:00 15,5 14,3 15,0 14,0 13,2 13,0 31 17 47 26 SW 1019,5 10 0 0,0
14.10.2017 07:00:00 15,6 14,3 15,0 14,0 13,2 13,0 29 16 41 22 SW 1019,5 12 0 0,0
14.10.2017 06:00:00 15,7 14,4 14,8 14,0 13,1 13,0 29 16 43 23 WSW 1019,7 7 0 0,0
14.10.2017 05:00:00 15,6 14,8 14,8 14,0 13,1 13,0 28 15 47 25 WSW 1019,7 4,4 0 0,0
14.10.2017 04:00:00 15,6 14,9 14,8 13,9 13,0 13,1 30 16 45 24 WSW 1019,7 3,1 0 0,0
14.10.2017 03:00:00 15,8 14,6 15,0 13,9 12,9 13,1 32 18 51 28 WSW 1019,7 6 0 0,0
14.10.2017 02:00:00 15,7 14,7 15,2 13,8 12,8 13,1 31 17 46 25 WSW 1019,6 9 0 0,0
14.10.2017 01:00:00 15,8 14,4 15,1 13,7 12,8 13,1 29 16 46 25 WSW 1019,6 9 0 0,0
14.10.2017 00:00:00 15,9 14,2 15,4 13,6 12,7 13,1 29 15 42 23 WSW 1019,8 15 0 0,0
13.10.2017 23:00:00 15,5 14,1 15,0 13,4 12,6 13,1 29 16 42 23 WSW 1020,0 11 0 0,0
13.10.2017 22:00:00 15,1 14,0 14,5 13,3 12,6 13,1 26 14 37 20 WSW 1020,3 6 0 0,0
13.10.2017 21:00:00 15,3 13,5 14,7 13,2 12,6 13,1 24 13 38 21 SW 1020,3 11 0 0,0
13.10.2017 20:00:00 15,1 13,1 14,4 13,1 12,5 13,1 18 10 27 15 SW 1020,5 14 0 0,0
13.10.2017 19:00:00 14,8 12,4 14,2 13,1 12,5 13,1 21 11 32 17 SW 1020,5 21 0 0,0
13.10.2017 18:00:00 14,8 12,1 14,2 13,3 12,4 13,1 19 10 29 16 SW 1020,6 23 0 0,0
13.10.2017 17:00:00 14,8 11,4 14,3 13,6 12,3 13,1 22 12 37 20 SW 1020,8 28 0 0,0
13.10.2017 16:00:00 15,2 11,2 15,3 13,9 12,1 13,1 20 11 34 19 SW 1020,7 28 0 0,0
13.10.2017 15:00:00 15,3 10,9 15,6 14,1 11,8 13,1 24 13 37 20 SW 1020,9 22 50 0,0
13.10.2017 14:00:00 14,6 11,7 15,0 13,4 11,5 13,1 19 10 30 16 SW 1020,9 15 35 0,0
13.10.2017 13:00:00 13,0 11,4 13,8 12,5 11,3 13,1 16 9 23 12 SSW 1021,3 8 1 0,0
13.10.2017 12:00:00 11,6 11,0 12,3 11,7 11,1 13,1 16 9 24 13 SW 1021,6 4,8 0 0,0
13.10.2017 11:00:00 11,3 10,4 11,6 11,1 11,0 13,1 18 10 25 14 SW 1021,4 8 2 0,0
13.10.2017 10:00:00 10,9 10,3 11,3 10,2 11,0 13,1 14 7 23 12 SW 1021,1 8 8 0,0
13.10.2017 09:00:00 10,4 9,9 9,9 9,7 11,0 13,1 16 9 24 13 SW 1020,5 9 0 0,0
13.10.2017 08:00:00 9,8 9,1 8,7 9,5 11,1 13,1 16 8 21 12 SW 1020,3 18 0 0,0
13.10.2017 07:00:00 9,5 8,6 8,1 9,7 11,3 13,1 14 7 16 8 SW 1020,0 19 0 0,0
13.10.2017 06:00:00 9,9 8,8 8,0 10,1 11,4 13,1 9 5 18 10 WSW 1019,7 26 0 0,0
13.10.2017 05:00:00 10,8 9,4 9,4 10,4 11,4 13,1 11 6 23 12 WSW 1019,6 27 0 0,0
13.10.2017 04:00:00 11,3 9,5 10,0 10,5 11,5 13,1 16 9 25 14 W 1019,0 29 0 0,0
13.10.2017 03:00:00 11,4 9,6 10,0 10,6 11,5 13,1 16 9 25 13 WSW 1018,8 24 0 0,0
13.10.2017 02:00:00 11,8 9,4 11,0 10,7 11,6 13,1 14 8 23 12 WSW 1018,3 28 0 0,0
13.10.2017 01:00:00 11,8 8,9 10,9 10,7 11,7 13,1 15 8 27 14 W 1017,7 29 0 0,0
13.10.2017 00:00:00 11,9 9,1 11,1 10,7 11,7 13,1 19 10 29 16 WSW 1017,6 28 0 0,0
12.10.2017 23:00:00 11,6 9,1 10,5 10,6 11,8 13,1 19 10 31 17 W 1017,5 27 0 0,0
12.10.2017 22:00:00 11,8 8,8 10,5 10,8 11,9 13,1 22 12 40 21 W 1016,9 32 0 0,0
12.10.2017 21:00:00 11,8 9,2 10,6 11,0 12,0 13,1 27 15 51 27 W 1016,4 32 0 0,0
12.10.2017 20:00:00 12,4 8,5 11,5 11,1 12,1 13,1 25 14 48 26 W 1015,7 32 0 0,0
12.10.2017 19:00:00 12,6 8,2 11,5 11,3 12,3 13,1 33 18 53 29 W 1015,2 32 0 0,0
12.10.2017 18:00:00 12,6 8,6 11,9 11,8 12,3 13,1 34 18 58 31 W 1014,4 28 13 0,0
12.10.2017 17:00:00 12,8 8,9 12,2 12,1 12,4 13,0 41 22 67 36 W 1013,6 24 10 0,1
12.10.2017 16:00:00 13,7 8,7 13,3 12,4 12,3 13,0 37 20 62 34 W 1012,9 31 31 0,0

tt = Température de l'air
td = dewpoint
tt 5cm = Température de l'air 5cm
tt -5cm = Température de l'air -5cm
tt -20cm = Température de l'air -20cm
tt -100cm = Température de l'air -100cm
ff = Vitesse du vent
fx = gusts
dd = Direction du vent
ppp = reduced air pressure
vv = visibility
sd = Ensoleillement
rr = Quantités de précipitations

stations d'obs. à proximité